Location: Buch
(49.7331°N, 12.1098°E)
Time: 09:00:21
(UTC+00:00)

COSMOS 2487 - Pass Details

Date: 12 May 2021
Orbit: 432 x 433 km, 74.7° (Epoch: 13 June)

Event Time Altitude Azimuth Distance (km) Brightness Sun altitude
Rises 23:16:33 0° 342° (NNW) 2,420 7.3 -21.9°
Reaches altitude 10° 23:18:41 10° 349° (NNW) 1,547 6.2 -21.8°
Maximum altitude 23:21:57 45° 63° (ENE) 603 3.2 -21.8°
Enters shadow 23:22:03 45° 68° (ENE) 604 3.1 -21.8°
